Regional Weather Roundup
Issued by NWS Nashville, TN

Home | Current Version | Previous Version | Text Only | Print | Product List | Glossary On
Versions: 1 2 3 4 5 6 7 8 9 10 11 12 13 14 15 16 17 18 19 20 21 22 23 24 25 26 27 28 29 30 31 32 33 34 35 36 37 38 39 40 41 42 43 44 45 46 47 48 49 50
000
ASUS44 KOHX 011615
RWROHX
MIDDLE TENNESSEE HOURLY WEATHER ROUNDUP
NATIONAL WEATHER SERVICE NASHVILLE TN
1000 AM CST SUN MAR 01 2015

NOTE: "FAIR" INDICATES FEW OR NO CLOUDS BELOW 12,000 FEET WITH
NO SIGNIFICANT WEATHER AND/OR OBSTRUCTIONS TO VISIBILITY.

* THESE REPORTS ARE NOT UNDER NWS QUALITY CONTROL AND MAY NOT
  REPORT WEATHER SUCH AS PRECIPITATION AND FOG.


TNZ005>011-023>034-057-059-062>066-078-080-011700
...NORTHERN MIDDLE TENNESSEE...

CITY           SKY/WX    TMP DP  RH WIND       PRES   REMARKS
CLARKSVILLE    LGT RAIN  38  35  89 CALM      30.39S FOG
CROSSVILLE     CLOUDY    46  42  86 S9        30.40R
GALLATIN         N/A     47  38  71 CALM      30.40R
DICKSON        CLOUDY    45  43  93 SW3       30.36F
LEBANON        CLOUDY    49  40  71 S8        30.37F
LIVINGSTON     CLOUDY    49  43  80 SW5       30.37S
NASHVILLE      LGT RAIN  50  43  76 S8        30.38S
WEST NASHVILLE CLOUDY    45  39  81 CALM      30.38S
PORTLAND       CLOUDY    45  37  76 S7        30.36S
SMYRNA         CLOUDY    51  41  69 S8        30.40S
SPARTA         CLOUDY    52  45  76 S6        30.38S
$$
TNZ056-058-060-061-075>077-079-093>097-011700
...SOUTHERN MIDDLE TENNESSEE...

CITY           SKY/WX    TMP DP  RH WIND       PRES   REMARKS
COLUMBIA       CLOUDY   N/A N/A N/A S8        30.37S
LEWISBURG      CLOUDY    49  41  74 S7        30.39R
MCMINNVILLE    CLOUDY    52  45  76 S5        30.39S
MURFREESBORO   CLOUDY    50  42  73 S8        30.39S
SHELBYVILLE    CLOUDY    52  45  76 S7        30.40R
TULLAHOMA      CLOUDY    48  43  81 S8        30.39F
WINCHESTER     CLOUDY    46  43  87 SE8       30.41R
$$


...KEY TO REMARKS...
VSB - VISIBILITY IN MILES
WCI - WIND CHILL INDEX
HX  - HEAT INDEX




USA.gov is the U.S. government's official web portal to all federal, state and local government web resources and services.